Stations météo

Publicité
Aurillac, France (7549): Température de l'air & dewpoint: 15.10.2017 19:00:00 - 21.10.2017 19:00:00 (CEST)Aurillac, France (7549): Température de l'air 5cm: 15.10.2017 19:00:00 - 21.10.2017 19:00:00 (CEST)Aurillac, France (7549): Température de l'air -20cm & Température de l'air -100cm: 15.10.2017 19:00:00 - 21.10.2017 19:00:00 (CEST)Aurillac, France (7549): Vitesse du vent & gusts: 15.10.2017 19:00:00 - 21.10.2017 19:00:00 (CEST)Aurillac, France (7549): Direction du vent: 15.10.2017 19:00:00 - 21.10.2017 19:00:00 (CEST)Aurillac, France (7549): reduced air pressure: 15.10.2017 19:00:00 - 21.10.2017 19:00:00 (CEST)Aurillac, France (7549): visibility: 15.10.2017 19:00:00 - 21.10.2017 19:00:00 (CEST)Aurillac, France (7549): Ensoleillement: 15.10.2017 19:00:00 - 21.10.2017 19:00:00 (CEST)Aurillac, France (7549): Quantités de précipitations: 15.10.2017 19:00:00 - 21.10.2017 19:00:00 (CEST)
Date & Time tt [°C] td [°C] tt 5cm [°C] tt -20cm [°C] tt -100cm [°C] ff [km/h] ff [knt] fx [km/h] fx [knt] dd ppp [hPa] vv [km] sd [min] rr [mm]
21.10.2017 19:00:00 9,1 8,0 8,8 14,5 15,1 2 1 13 7 NW 1024,1 13 0 0,2
21.10.2017 18:00:00 9,2 8,1 9,1 14,5 15,1 12 6 36 19 WNW 1024,1 14 0 0,8
21.10.2017 17:00:00 9,9 9,4 10,1 14,5 15,1 16 9 26 14 WNW 1023,2 2,7 0 2,0
21.10.2017 16:00:00 11,1 9,4 11,3 14,5 15,1 11 6 33 18 W 1022,2 5 0 0,0
21.10.2017 15:00:00 12,2 9,6 11,4 14,5 15,1 8 5 26 14 WNW 1021,6 53 0 0,0
21.10.2017 14:00:00 11,6 10,3 11,3 14,5 15,1 18 10 40 22 W 1021,8 11 0 0,2
21.10.2017 13:00:00 12,5 12,0 12,5 14,6 15,1 15 8 25 13 WSW 1021,5 3,9 0 0,0
21.10.2017 12:00:00 13,0 12,1 13,3 14,6 15,1 14 8 29 15 SSW 1021,3 6 0 0,0
21.10.2017 11:00:00 13,4 11,6 12,5 14,6 15,1 5 3 9 5 E 1021,1 20 0 0,0
21.10.2017 10:00:00 12,7 10,9 11,2 14,7 15,1 9 5 17 9 E 1020,6 20 0 0,0
21.10.2017 09:00:00 11,5 10,4 9,2 14,7 15,1 12 6 19 10 E 1020,4 20 6 0,0
21.10.2017 08:00:00 10,0 9,4 8,7 14,7 15,1 13 7 16 9 E 1020,5 15 0 0,0
21.10.2017 07:00:00 10,6 9,8 8,5 14,8 15,2 10 5 17 9 E 1020,0 17 0 0,0
21.10.2017 06:00:00 10,7 10,1 9,1 14,8 15,1 12 7 18 10 E 1019,6 15 0 0,0
21.10.2017 05:00:00 10,8 10,3 8,8 14,8 15,1 13 7 18 10 E 1019,3 10 0 0,0
21.10.2017 04:00:00 11,5 10,4 9,5 14,8 15,2 10 5 16 9 E 1019,4 12 0 0,0
21.10.2017 03:00:00 12,1 11,6 10,8 14,9 15,1 12 6 16 8 E 1019,1 10 0 0,0
21.10.2017 02:00:00 12,4 11,8 11,1 14,9 15,2 11 6 13 7 ESE 1019,5 10 0 0,2
21.10.2017 01:00:00 13,4 12,6 12,1 14,9 15,1 9 5 14 8 ESE 1019,4 12 0 0,0
21.10.2017 00:00:00 13,6 13,0 11,7 14,9 15,2 8 4 14 7 ESE 1019,3 10 0 0,0
20.10.2017 23:00:00 13,4 12,6 10,1 14,8 15,1 9 5 13 7 E 1019,3 9 0 0,0
20.10.2017 22:00:00 12,7 12,2 10,6 14,8 15,1 9 5 12 6 E 1019,1 8 0 0,0
20.10.2017 21:00:00 13,5 12,6 11,5 14,8 15,2 9 5 13 7 E 1018,8 13 0 0,0
20.10.2017 20:00:00 14,4 13,1 13,3 14,7 15,2 8 5 10 6 ESE 1018,4 17 0 0,0
20.10.2017 19:00:00 15,9 13,2 15,3 14,7 15,1 4 2 12 7 SSW 1017,8 33 0 0,0
20.10.2017 18:00:00 16,3 13,0 16,5 14,7 15,1 9 5 20 11 S 1017,4 46 0 0,0
20.10.2017 17:00:00 16,6 12,7 17,8 14,6 15,1 13 7 21 11 SSW 1017,6 44 4 0,0
20.10.2017 16:00:00 16,7 12,8 19,2 14,6 15,2 11 6 20 11 S 1017,2 55 0 0,0
20.10.2017 15:00:00 16,4 12,0 20,2 14,6 15,2 13 7 19 11 S 1017,6 54 10 0,0
20.10.2017 14:00:00 16,0 12,2 17,5 14,6 15,1 11 6 21 11 SW 1018,2 51 8 0,0
20.10.2017 13:00:00 15,0 13,0 13,6 14,6 15,2 12 6 19 11 SW 1018,6 19 1 0,0
20.10.2017 12:00:00 13,7 12,6 13,8 14,6 15,2 9 5 16 9 SW 1018,8 10 0 0,0
20.10.2017 11:00:00 13,7 12,4 12,9 14,6 15,1 5 3 13 7 SSW 1018,4 13 0 0,0
20.10.2017 10:00:00 13,5 11,9 12,7 14,7 15,2 8 4 19 10 S 1017,7 13 0 0,0
20.10.2017 09:00:00 13,1 11,5 11,9 14,7 15,2 7 4 13 7 SE 1016,7 15 0 0,0
20.10.2017 08:00:00 12,6 11,0 11,9 14,7 15,2 5 3 10 5 SE 1016,3 18 0 0,0
20.10.2017 07:00:00 12,3 11,4 11,9 14,7 15,2 3 2 10 5 E 1016,3 11 0 0,4
20.10.2017 06:00:00 12,4 11,3 11,9 14,7 15,2 3 2 14 7 E 1016,0 15 0 0,0
20.10.2017 05:00:00 12,7 11,3 12,0 14,8 15,2 6 4 10 6 SSE 1015,7 8 0 0,0
20.10.2017 04:00:00 12,8 11,0 12,1 14,8 15,2 8 4 15 8 ESE 1015,6 20 0 0,0
20.10.2017 03:00:00 12,8 11,2 11,9 14,8 15,2 9 5 22 12 ESE 1015,3 19 0 0,0
20.10.2017 02:00:00 12,9 11,0 8,5 14,8 15,2 15 8 29 16 SE 1014,8 13 0 0,0
20.10.2017 01:00:00 11,6 10,5 7,9 14,8 15,2 2 1 9 5 SW 1014,8 10 0 0,2
20.10.2017 00:00:00 11,4 10,3 7,9 14,8 15,2 2 1 11 6 SE 1014,5 11 0 0,0
19.10.2017 23:00:00 12,5 11,6 10,9 14,8 15,2 7 4 17 9 SE 1013,7 15 0 0,0
19.10.2017 22:00:00 13,2 12,6 12,8 14,8 15,2 9 5 16 9 ESE 1013,7 11 0 0,0
19.10.2017 21:00:00 13,6 12,3 13,0 14,8 15,2 11 6 22 12 SSE 1013,8 14 0 0,0
19.10.2017 20:00:00 13,8 12,5 13,0 14,8 15,2 13 7 31 17 SE 1013,0 18 0 0,0
19.10.2017 19:00:00 14,2 12,4 13,4 14,8 15,2 13 7 26 14 SE 1012,1 19 1 0,2
19.10.2017 18:00:00 14,6 12,6 13,9 14,8 15,2 14 7 29 15 SE 1011,5 19 11 0,0
19.10.2017 17:00:00 14,3 12,8 13,9 14,8 15,2 14 8 24 13 SE 1011,2 14 0 0,2
19.10.2017 16:00:00 14,0 12,9 13,7 14,8 15,2 11 6 31 17 SE 1011,4 11 0 1,4
19.10.2017 15:00:00 14,5 12,4 13,7 14,8 15,2 18 10 34 18 SSE 1011,1 19 4 0,2
19.10.2017 14:00:00 14,5 12,0 13,8 14,8 15,2 22 12 38 21 SSE 1011,5 10 2 0,2
19.10.2017 13:00:00 14,1 12,1 13,3 14,8 15,2 19 11 42 23 SSE 1012,0 10 0 0,0
19.10.2017 12:00:00 16,2 10,5 15,9 14,8 15,2 23 12 41 22 SSE 1011,3 52 0 0,0
19.10.2017 11:00:00 15,5 10,7 14,7 14,8 15,2 23 12 45 24 SE 1010,9 60 0 0,0
19.10.2017 10:00:00 14,2 10,8 12,7 14,8 15,2 22 12 47 26 SE 1011,6 50 0 0,2
19.10.2017 09:00:00 14,3 10,3 13,2 14,9 15,2 20 11 39 21 SE 1011,4 55 0 0,0
19.10.2017 08:00:00 14,5 10,3 12,7 14,9 15,2 22 12 50 27 SE 1010,9 57 0 0,0
19.10.2017 07:00:00 14,4 11,2 12,7 14,9 15,2 20 11 53 28 SE 1010,8 46 0 0,2
19.10.2017 06:00:00 15,6 10,8 14,4 14,9 15,2 31 17 50 27 SSE 1010,3 48 0 0,0
19.10.2017 05:00:00 15,4 11,0 14,4 14,9 15,2 21 12 56 30 SSE 1009,5 60 0 0,0
19.10.2017 04:00:00 16,0 11,2 14,9 14,9 15,2 32 17 54 29 SE 1009,3 60 0 0,0
19.10.2017 03:00:00 16,1 11,3 15,1 14,9 15,2 25 13 58 32 SE 1009,7 57 0 0,0
19.10.2017 02:00:00 16,3 11,9 15,3 14,9 15,2 27 15 58 31 SE 1009,5 56 0 0,0
19.10.2017 01:00:00 16,6 11,5 15,4 14,9 15,2 29 16 55 30 SE 1009,2 60 0 0,0
19.10.2017 00:00:00 16,6 11,3 15,0 14,9 15,2 25 14 52 28 SE 1009,9 54 0 0,0
18.10.2017 23:00:00 16,4 11,5 14,1 14,9 15,2 24 13 47 26 SE 1010,1 51 0 0,0
18.10.2017 22:00:00 16,4 12,2 14,3 14,8 15,2 24 13 45 25 SE 1010,3 41 0 0,0
18.10.2017 21:00:00 16,3 11,7 15,1 14,8 15,2 25 13 47 26 SE 1010,5 20 0 0,0
18.10.2017 20:00:00 16,2 12,0 15,0 14,7 15,2 22 12 45 25 ESE 1010,4 44 0 0,0
18.10.2017 19:00:00 16,4 12,0 15,6 14,7 15,2 22 12 48 26 ESE 1009,9 48 0 0,0
18.10.2017 18:00:00 17,4 12,1 17,4 14,6 15,2 31 17 56 30 SE 1009,5 29 57 0,0
18.10.2017 17:00:00 18,9 12,4 20,8 14,6 15,2 27 14 45 25 SE 1010,0 32 56 0,0
18.10.2017 16:00:00 19,3 12,1 19,9 14,6 15,2 23 12 46 25 SE 1010,1 20 45 0,0
18.10.2017 15:00:00 18,4 11,9 19,2 14,5 15,2 28 15 46 25 SE 1010,8 43 18 0,0
18.10.2017 14:00:00 19,3 12,3 19,2 14,5 15,2 26 14 48 26 SE 1011,5 49 28 0,0
18.10.2017 13:00:00 18,1 11,9 18,4 14,5 15,2 22 12 41 22 ESE 1012,5 60 8 0,0
18.10.2017 12:00:00 17,8 11,8 18,9 14,6 15,2 25 14 48 26 ESE 1012,9 20 48 0,0
18.10.2017 11:00:00 17,0 11,9 15,5 14,6 15,2 19 10 40 22 ESE 1013,6 20 41 0,0
18.10.2017 10:00:00 15,1 10,3 13,9 14,6 15,2 18 10 30 16 ESE 1014,3 52 17 0,0
18.10.2017 09:00:00 14,1 9,7 12,3 14,7 15,2 16 8 26 14 E 1014,7 47 6 0,0
18.10.2017 08:00:00 13,4 9,3 12,0 14,7 15,2 15 8 27 14 E 1014,8 42 0 0,0
18.10.2017 07:00:00 13,0 9,1 11,4 14,7 15,2 14 8 27 14 E 1015,3 40 0 0,0
18.10.2017 06:00:00 12,8 8,9 11,0 14,8 15,2 15 8 23 13 E 1015,8 34 0 0,0
18.10.2017 05:00:00 12,5 8,8 11,0 14,8 15,2 13 7 22 12 E 1016,4 31 0 0,0
18.10.2017 04:00:00 12,6 8,7 10,8 14,8 15,2 15 8 26 14 E 1016,9 29 0 0,0
18.10.2017 03:00:00 12,5 8,6 10,7 14,8 15,2 13 7 21 12 E 1017,6 28 0 0,0
18.10.2017 02:00:00 12,4 8,1 10,7 14,9 15,2 14 8 26 14 E 1018,1 27 0 0,0
18.10.2017 01:00:00 12,2 7,9 10,7 14,9 15,2 12 7 22 12 E 1018,7 20 0 0,0
18.10.2017 00:00:00 12,4 8,1 10,9 14,9 15,2 14 7 24 13 E 1019,0 26 0 0,0
17.10.2017 23:00:00 12,7 8,4 11,2 14,8 15,2 15 8 24 13 E 1019,1 27 0 0,0
17.10.2017 22:00:00 13,0 8,5 11,7 14,8 15,2 14 7 24 13 E 1019,3 20 0 0,0
17.10.2017 21:00:00 13,5 8,8 11,5 14,8 15,2 16 9 32 17 ESE 1019,2 20 0 0,0
17.10.2017 20:00:00 14,2 8,8 11,4 14,7 15,2 14 8 21 12 SE 1019,2 36 0 0,0
17.10.2017 19:00:00 15,9 8,4 13,6 14,6 15,2 12 6 28 15 SSE 1018,3 52 40 0,0
17.10.2017 18:00:00 18,9 8,5 19,9 14,6 15,2 14 7 27 15 SE 1017,4 35 60 0,0
17.10.2017 17:00:00 20,2 8,8 22,8 14,5 15,3 14 8 32 17 SSE 1017,3 27 60 0,0
17.10.2017 16:00:00 20,5 7,8 23,2 14,5 15,2 22 12 42 23 SSE 1017,6 27 60 0,0
17.10.2017 15:00:00 20,3 6,6 23,4 14,5 15,2 24 13 40 22 SE 1018,1 28 60 0,0
17.10.2017 14:00:00 19,6 7,7 23,1 14,5 15,2 20 11 36 20 SE 1018,9 20 60 0,0
17.10.2017 13:00:00 18,9 8,2 22,8 14,5 15,2 20 11 36 20 SE 1019,9 19 60 0,0
17.10.2017 12:00:00 17,6 5,8 20,8 14,6 15,2 20 11 34 18 SE 1020,6 48 60 0,0
17.10.2017 11:00:00 16,3 5,0 18,0 14,7 15,2 12 6 19 10 ESE 1021,4 20 60 0,0
17.10.2017 10:00:00 11,8 5,0 9,7 14,8 15,2 4 2 9 5 ESE 1022,9 7 60 0,0
17.10.2017 09:00:00 8,9 2,5 4,1 14,9 15,2 7 4 18 10 ESE 1023,8 8 40 0,0
17.10.2017 08:00:00 6,1 3,1 1,9 15,0 15,2 11 6 16 8 ESE 1024,4 16 0 0,0
17.10.2017 07:00:00 6,1 4,1 0,1 15,0 15,2 10 5 12 7 ESE 1025,0 5 0 0,0
17.10.2017 06:00:00 7,5 4,6 1,2 15,1 15,3 5 3 14 8 S 1024,9 37 0 0,0
17.10.2017 05:00:00 9,2 6,5 5,6 15,1 15,2 10 6 20 11 ESE 1024,9 32 0 0,0
17.10.2017 04:00:00 8,2 6,2 2,9 15,2 15,2 10 5 13 7 ESE 1025,7 28 0 0,0
17.10.2017 03:00:00 8,6 6,7 3,2 15,2 15,2 5 3 12 6 SE 1026,0 20 0 0,0
17.10.2017 02:00:00 10,7 7,9 6,4 15,2 15,3 9 5 11 6 ESE 1025,7 25 0 0,0
17.10.2017 01:00:00 11,1 8,3 7,7 15,3 15,2 9 5 17 9 ESE 1025,7 25 0 0,0
17.10.2017 00:00:00 11,6 8,8 8,9 15,3 15,2 11 6 23 13 E 1025,7 25 0 0,0
16.10.2017 23:00:00 12,5 9,5 9,7 15,2 15,3 10 5 18 10 E 1025,7 26 0 0,0
16.10.2017 22:00:00 13,2 9,8 11,0 15,2 15,2 11 6 18 10 E 1025,4 20 0 0,0
16.10.2017 21:00:00 15,0 10,4 11,9 15,1 15,2 9 5 18 10 E 1025,1 20 0 0,0
16.10.2017 20:00:00 15,8 10,8 9,0 15,0 15,3 9 5 12 6 SE 1025,0 20 0 0,0
16.10.2017 19:00:00 18,8 10,6 12,1 14,9 15,3 4 2 16 8 SSE 1023,9 13 35 0,0
16.10.2017 18:00:00 20,9 11,2 21,5 14,8 15,3 11 6 23 12 SSE 1022,9 49 60 0,0
16.10.2017 17:00:00 21,8 11,8 25,3 14,7 15,3 13 7 24 13 SE 1022,6 31 60 0,0
16.10.2017 16:00:00 22,1 12,4 26,0 14,7 15,3 15 8 25 13 SE 1022,8 16 60 0,0
16.10.2017 15:00:00 21,6 11,3 26,4 14,6 15,2 16 9 28 15 SE 1023,0 19 60 0,0
16.10.2017 14:00:00 21,2 12,1 25,5 14,6 15,3 16 9 29 15 SE 1023,6 19 60 0,0
16.10.2017 13:00:00 20,2 11,1 23,9 14,7 15,3 18 10 31 17 SE 1024,3 19 60 0,0
16.10.2017 12:00:00 19,3 10,3 22,2 14,7 15,3 16 9 34 19 SE 1024,4 18 60 0,0
16.10.2017 11:00:00 18,0 9,3 19,1 14,8 15,3 16 9 30 16 SE 1024,6 19 60 0,0
16.10.2017 10:00:00 16,4 7,1 13,5 14,8 15,3 12 7 22 12 ESE 1024,8 20 60 0,0
16.10.2017 09:00:00 13,3 6,2 10,0 14,9 15,3 13 7 19 11 E 1025,0 20 31 0,0
16.10.2017 08:00:00 12,3 6,6 10,0 14,9 15,3 13 7 20 11 E 1024,6 37 0 0,0
16.10.2017 07:00:00 11,6 7,5 9,9 15,0 15,3 14 8 19 11 E 1024,9 35 0 0,0
16.10.2017 06:00:00 11,8 7,9 10,1 15,0 15,3 13 7 19 10 E 1024,8 30 0 0,0
16.10.2017 05:00:00 11,6 8,6 8,8 15,0 15,2 11 6 16 9 E 1025,2 32 0 0,0
16.10.2017 04:00:00 12,8 9,4 11,5 15,1 15,3 12 6 25 14 E 1025,2 31 0 0,0
16.10.2017 03:00:00 12,9 9,9 12,0 15,1 15,3 19 10 31 17 E 1025,4 31 0 0,0
16.10.2017 02:00:00 13,2 10,2 12,1 15,1 15,3 18 10 26 14 E 1025,6 29 0 0,0
16.10.2017 01:00:00 13,3 10,3 12,2 15,1 15,3 15 8 27 14 E 1026,2 28 0 0,0
16.10.2017 00:00:00 13,9 10,7 12,9 15,1 15,3 16 9 25 14 E 1026,2 28 0 0,0
15.10.2017 23:00:00 14,5 11,1 13,0 15,1 15,3 13 7 24 13 E 1026,2 31 0 0,0
15.10.2017 22:00:00 14,8 11,2 12,9 15,0 15,3 14 7 29 15 SE 1026,1 32 0 0,0
15.10.2017 21:00:00 15,2 11,2 12,2 14,9 15,3 9 5 14 8 ESE 1025,8 30 0 0,0
15.10.2017 20:00:00 16,1 11,5 13,2 14,8 15,3 9 5 23 13 SE 1025,5 29 0 0,0
15.10.2017 19:00:00 18,2 12,0 15,7 14,7 15,3 12 6 24 13 SE 1024,3 32 46 0,0

tt = Température de l'air
td = dewpoint
tt 5cm = Température de l'air 5cm
tt -20cm = Température de l'air -20cm
tt -100cm = Température de l'air -100cm
ff = Vitesse du vent
fx = gusts
dd = Direction du vent
ppp = reduced air pressure
vv = visibility
sd = Ensoleillement
rr = Quantités de précipitations

stations d'obs. à proximité